Montreal Mirabel, Quebec

8:13 PM EDT on July 23, 2017 (GMT -0400)
Montreal Mirabel

Weather History for CYMX - October, 2012

Change the Weather History Date:

Wednesday, October 31, 2012

  Actual Average Record
Temperature  
Mean Temperature 50 °F -  
Max Temperature 57 °F 45 °F 64 °F (1999)
Min Temperature 44 °F 30 °F 21 °F (2002)
Degree Days  
Heating Degree Days 14    
Moisture  
Dew Point 50 °F    
Average Humidity 97    
Maximum Humidity 100    
Minimum Humidity 93    
Precipitation  
Precipitation 0.00 in - - ()
Sea Level Pressure  
Sea Level Pressure 29.47 in    
Wind  
Wind Speed 6 mph ()    
Max Wind Speed 10 mph    
Max Gust Speed 21 mph    
Visibility 6.9 miles    
Events Fog , Rain    
Averages and records for this station are not official NWS values.
T = Trace of Precipitation, MM = Missing Value Source: Averaged Metar Reports

Daily Weather History Graph

Daily Weather History Graph

Search for Another Location

Airport or City:

Trip Planner

Search our weather history database for the weather conditions in past years. The results will help you decide how hot, cold, wet, or windy it might be!

Date:

Astronomy

Oct. 31, 2012 Rise Set
Actual Time 7:35 AM EDT 5:43 PM EDT
Civil Twilight 7:04 AM EDT 6:14 PM EDT
Nautical Twilight 6:29 AM EDT 6:49 PM EDT
Astronomical Twilight 5:54 AM EDT 7:24 PM EDT
Moon 6:46 PM EDT (10/31) 9:19 AM EDT (10/31)
Length of Visible Light 11h 10m
Length of Day
10h 08m
Full, 97% of the Moon is Illuminated
Oct 31
Full
Nov 6
Last Quarter
Nov 13
New
Nov 20
First Quarter
Nov 28
Full

Hourly Weather History & Observations

Time (EDT) Temp. Windchill Dew Point Humidity Pressure Visibility Wind Dir Wind Speed Gust Speed Precip Events Conditions
12:00 AM 57.2 °F - 57.2 °F 100% 29.52 in 15.0 mi ENE 9.2 mph - N/A Rain Light Rain Showers
1:00 AM 57.2 °F - 57.2 °F 100% 29.51 in 10.0 mi ENE 6.9 mph - N/A Rain Light Rain Showers
2:00 AM 57.2 °F - 57.2 °F 100% 29.48 in 15.0 mi NE 4.6 mph - N/A Rain Light Rain Showers
3:00 AM 57.2 °F - 55.4 °F 94% 29.50 in 15.0 mi East 6.9 mph - N/A   Overcast
4:00 AM 55.4 °F - 55.4 °F 100% 29.50 in 15.0 mi East 9.2 mph - N/A   Overcast
4:26 AM 55.4 °F - 55.4 °F 100% 29.49 in 1.5 mi East 8.1 mph - N/A   Overcast
5:00 AM 55.4 °F - 53.6 °F 94% 29.49 in 1.5 mi East 8.1 mph - N/A   Overcast
5:34 AM 53.6 °F - 53.6 °F 100% 29.48 in 2.0 mi East 8.1 mph - N/A   Scattered Clouds
6:00 AM 53.6 °F - 53.6 °F 100% 29.47 in 1.0 mi NE 5.8 mph - N/A   Mostly Cloudy
6:33 AM 51.8 °F - 51.8 °F 100% 29.48 in 1.0 mi NE 5.8 mph - N/A   Overcast
7:00 AM 51.8 °F - 51.8 °F 100% 29.46 in 1.0 mi NNE 3.5 mph - N/A   Overcast
7:24 AM 53.6 °F - 53.6 °F 100% 29.45 in 0.5 mi ENE 5.8 mph - N/A Fog Fog
8:00 AM 53.6 °F - 53.6 °F 100% 29.45 in 0.5 mi NE 8.1 mph - N/A Fog Fog
9:00 AM 55.4 °F - 55.4 °F 100% 29.45 in 0.5 mi NE 8.1 mph - N/A Fog Fog
9:11 AM 55.4 °F - 55.4 °F 100% 29.45 in 0.6 mi ENE 6.9 mph - N/A   Overcast
10:00 AM 55.4 °F - 53.6 °F 94% 29.43 in 2.5 mi NE 5.8 mph - N/A   Overcast
11:00 AM 55.4 °F - 53.6 °F 94% 29.42 in 0.8 mi ENE 6.9 mph - N/A   Overcast
12:00 PM 57.2 °F - - N/A% - 3.0 mi East 5.8 mph - N/A Rain Light Rain Showers
1:00 PM 50.0 °F - 50.0 °F 100% 29.42 in 10.0 mi WSW 10.4 mph 19.6 mph N/A Rain Light Rain Showers
1:31 PM 48.2 °F - 48.2 °F 100% 29.43 in 25.0 mi WSW 9.2 mph 20.7 mph N/A Rain Light Rain Showers
2:00 PM 48.2 °F - 46.4 °F 93% 29.43 in 45.0 mi WSW 10.4 mph 19.6 mph N/A Rain Light Rain Showers
2:36 PM 48.2 °F - 46.4 °F 93% 29.45 in 12.0 mi SW 9.2 mph - N/A Rain Light Rain Showers
3:00 PM 48.2 °F - 46.4 °F 93% 29.44 in 25.0 mi West 5.8 mph - N/A Rain Light Rain Showers
4:00 PM 48.2 °F - 46.4 °F 93% 29.45 in 15.0 mi West 4.6 mph - N/A Rain Light Rain Showers
5:00 PM 48.2 °F - 46.4 °F 93% 29.45 in 15.0 mi Calm Calm - N/A Rain Light Rain Showers
6:00 PM 46.4 °F 42.4 °F 44.6 °F 93% 29.46 in 5.0 mi WSW 8.1 mph - N/A Rain Light Rain Showers
7:00 PM 44.6 °F 41.4 °F 44.6 °F 100% 29.48 in 6.0 mi WSW 5.8 mph - N/A Rain Light Rain Showers
8:00 PM 44.6 °F 42.2 °F 42.8 °F 93% 29.49 in 15.0 mi WSW 4.6 mph - N/A Rain Light Rain Showers
9:00 PM 44.6 °F - 42.8 °F 93% 29.49 in 25.0 mi SSW 2.3 mph - N/A   Overcast
10:00 PM 44.6 °F - 42.8 °F 93% 29.48 in 25.0 mi Calm Calm - N/A Rain Light Rain Showers
10:35 PM 44.6 °F - 42.8 °F 93% 29.49 in 25.0 mi Calm Calm - N/A   Overcast
11:00 PM 44.6 °F 43.1 °F 42.8 °F 93% 29.49 in 15.0 mi SSE 3.5 mph - N/A   Overcast